Regional Weather Roundup
Issued by NWS

Home | Current Version | Previous Version | Graphics & Text | Print | Product List | Glossary On
Versions: 1 2 3 4 5 6 7 8 9 10 11 12 13 14 15 16 17 18 19 20 21 22 23 24 25 26 27 28 29 30 31 32 33 34 35 36 37 38 39 40 41 42 43 44 45 46 47 48 49 50
000
ASUS43 KMKX 012311
RWRWI

WISCONSIN REGIONAL WEATHER ROUNDUP
NATIONAL WEATHER SERVICE MILWAUKEE/SULLIVAN WI
600 PM CDT WED JUL 01 2015

NOTE: "FAIR" INDICATES FEW OR NO CLOUDS BELOW 12,000 FEET WITH NO
SIGNIFICANT WEATHER AND/OR OBSTRUCTIONS TO VISIBILITY.

WIZ001-002-006>008-014>016-023>028-020000-
NORTHWEST WISCONSIN

CITY           SKY/WX    TMP DP  RH WIND       PRES   REMARKS
SUPERIOR ARPT  SUNNY     67  58  72 NE8       29.98S
ASHLAND        SUNNY     69  50  50 E5        30.01S
HAYWARD        MOSUNNY   72  51  47 NE7       30.00S
SIREN          SUNNY     73  49  42 NW5       30.00S
CUMBERLAND     SUNNY     70  50  49 NE3       30.00S
RICE LAKE      SUNNY     72  49  44 N3        30.01S
CHETEK         MOSUNNY   72  53  51 MISG      29.99S
LADYSMITH      SUNNY     72  49  44 NW5       30.01S
EAU CLAIRE     SUNNY     73  50  44 N5        29.98S
MENOMONIE      SUNNY     73  50  44 NE5       29.99F
NEW RICHMOND   SUNNY     72  50  46 N6        30.00S
OSCEOLA        MOSUNNY   73  51  44 E3        30.01S
$$

WIZ003>005-009-010-017-018-020000-
NORTH CENTRAL WISCONSIN

CITY           SKY/WX    TMP DP  RH WIND       PRES   REMARKS
MANITOWISH WTR SUNNY     67  47  48 N7        30.01S
ARBOR VITAE    SUNNY     69  45  41 NE7       30.01R
WOODRUFF       SUNNY     69  45  41 NE7       30.01R
RHINELANDER    SUNNY     69  44  40 VRB5      30.01S
EAGLE RIVER    SUNNY     68  43  40 NW5       30.01S
LAND O LAKES   SUNNY     67  42  40 N6        30.02S
PHILLIPS       SUNNY     70  45  41 NE6       29.99S
TOMAHAWK       SUNNY     69  44  40 N6        30.00F
MEDFORD        SUNNY     70  47  42 N6        29.99F
MERRILL        SUNNY     70  47  42 E6        29.99F
$$

WIZ029-030-035-036-043>047-020000-
CENTRAL WISCONSIN

CITY           SKY/WX    TMP DP  RH WIND       PRES   REMARKS
WAUSAU         SUNNY     72  42  34 NE7       29.97S
MOSINEE        SUNNY     70  45  40 N6        29.99S
MARSHFIELD     SUNNY     72  42  34 VRB5      29.98S
STEVENS POINT  SUNNY     69  42  37 NE6       29.98S
WAUPACA        SUNNY     73  45  35 E5        29.97S
WAUTOMA        MOSUNNY   71  44  37 N5        29.98S
WISC RAPIDS    SUNNY     72  45  37 VRB3      29.99S
CAMP DOUGLAS   MOSUNNY   70  50  49 NE2       29.97S
$$

WIZ011>013-019>022-031-037>040-048>050-020000-
NORTHEAST WISCONSIN

CITY           SKY/WX    TMP DP  RH WIND       PRES   REMARKS
ANTIGO         SUNNY     68  47  46 N6        29.99S
SHAWANO        MOSUNNY   73  44  35 NE6       29.97S
OCONTO         MOSUNNY   65  50  57 E8        29.97S
STURGEON BAY   MOSUNNY   63  52  67 NE5       30.00S
GREEN BAY      MOSUNNY   71  52  50 N6        29.97S
MANITOWOC      PTSUNNY   57  53  86 MISG      29.99R
APPLETON       MOSUNNY   66  50  55 VRB5      29.98S
CLINTONVILLE   MOSUNNY   72  41  33 N7        29.97S
OSHKOSH        PTSUNNY   67  52  58 E9        29.97S
$$

WIZ032>034-041-042-053>061-020000-
SOUTHWEST WISCONSIN

CITY           SKY/WX    TMP DP  RH WIND       PRES   REMARKS
LA CROSSE      MOSUNNY   71  51  49 W5        29.97F
SPARTA         SUNNY     73  44  35 N3        29.98S
VIROQUA        MOSUNNY   68  48  50 NE3       29.98F
BOSCOBEL       CLOUDY    69  51  52 NE5       29.97F
PRAIRIE DU CHI CLOUDY    66  49  55 CALM      29.97S
PLATTEVILLE    CLOUDY    65  52  61 NE5       29.97S
$$

WIZ056-057-062-063-064-067-068-020000-
SOUTH CENTRAL WISCONSIN

CITY           SKY/WX    TMP DP  RH WIND       PRES   REMARKS
REEDSBURG      MOSUNNY   68  49  50 CALM      29.97S
BARABOO/DELLS  MOSUNNY   70  45  40 CALM      29.97S
LONE ROCK      PTSUNNY   69  51  52 NE7       29.97F
MINERAL POINT  CLOUDY    66  48  52 CALM      29.98S
MADISON        CLOUDY    67  51  56 NE5       29.97S
MIDDLETON      CLOUDY    68  45  43 NE3       29.98F
WATERTOWN      CLOUDY    66  55  67 CALM      29.96S
MONROE         CLOUDY    64  50  59 N8        29.97F
JANESVILLE     SUNNY     68  52  56 CALM      29.96S
$$

WIZ051-052-058>065-066-070>072-020000-
SOUTHEAST WISCONSIN

CITY           SKY/WX    TMP DP  RH WIND       PRES   REMARKS
MILWAUKEE      CLOUDY    55  50  83 NE7       30.00R
WAUKESHA       MOSUNNY   57  52  82 E8        29.99S
MILWAUKEE/TIMM MOSUNNY   57  48  72 E6        30.00S
RACINE         PTSUNNY   55  49  80 NE9       30.01S
BURLINGTON     CLOUDY    59  51  74 E9        29.98S
KENOSHA        PTSUNNY   56  50  80 E7        30.00R
FOND DU LAC    PTSUNNY   67  52  58 NE7       29.98R
SHEBOYGAN      PTSUNNY   62  53  72 CALM      29.99S
WEST BEND      PTSUNNY   59  52  77 E6        29.99S
JUNEAU         PTSUNNY   66  52  60 NE8       29.98S
$$

LSZ147-162-020000-
LAKE SUPERIOR

STATION/POSITION TIME  TEMP    WIND        PRES    WAVE
                       AIR SEA DIR/SP/G            HT/PER
                 (UTC) (F)     (DEG/KT/KT) (MB)    (FT/S)
W MID LAKE BUOY  2250   51 39  170/  4/  4 1016.8F   0
DEVILS ISLAND    2300   63     120/  6/  8 1016.0F
SAXON HARBOR     2240   62        CALM     1016.3F
$$

LMZ867-665-643>646-020000-
LAKE MICHIGAN

STATION/POSITION TIME  TEMP    WIND        PRES    WAVE
                       AIR SEA DIR/SP/G            HT/PER
                 (UTC) (F)     (DEG/KT/KT) (MB)    (FT/S)
CHAMBERS ISLAND  2200   63      30/  9/ 12 1015.6S
N MID LAKE BUOY  2250   54 46  230/  4/  4 1015.4F   1/ 4
NORTHPORT PIER   2300   63      20/ 10/ 14 1015.2S
SISTER BAY       2229   66      30/  8/ 13   N/A
ALGOMA LAKESHORE 2240          190/  3/  5   N/A
KEWAUNEE LAKESHO 2200   56     130/  5/  8 1014.9F
SHEBOYGAN LAKESH 2300   54     130/  2/  2 1016.0R
PORT WASHINGTON  2200   56      60/  5/  8 1016.6S
ATWATER BUOY     2300   54      30/  4/  8 1017.0S
MILWAUKEE LAKESH 2200   53      60/  7/  9   N/A
KENOSHA   LAKESH 2300   54      40/  6/  7 1015.9R
$$

TC  - TEMPERATURE IN CELSIUS
VSB - VISIBILITY IN STATUTE MILES
WCI - WIND CHILL INDEX
HX  - HEAT INDEX



USA.gov is the U.S. government's official web portal to all federal, state and local government web resources and services.